Location: Unspecified
(0.0000°N, 0.0000°E)
Time: 21:30:25

Hubble Space Telescope - Pass Details

Date: 17 January 2018
Orbit: 537 x 541 km, 28.5° (Epoch: 21 March)

Event Time Altitude Azimuth Distance (km) Brightness Sun altitude
Rises 20:05:41 0° 280° (W) 2,669 5.2 -26.9°
Reaches altitude 10° 20:09:44 10° 319° (NW) 1,777 3.6 -27.8°
Enters shadow 20:09:45 10° 320° (NW) 1,776 3.6 -27.8°
